Flag for Marshall Islands Weather past 2 weeks in Kwajalein, Marshall Islands

Now
79 °F

Clear.


Feels Like: 82 °F
Forecast: 80 / 86 °F
Wind: 8 mph from Northeast

Location: Kwajalein / Bucholz

Current Time: Apr 28, 2015 at 3:38:29 AM

Latest Report: Apr 28, 2015 at 3:00 AM


Visibility: 10 mi

Pressure: 29.80 "Hg

Humidity: 91%

Dew point: 76 °F

Location of KwajaleinLocation

Historic Weather in Kwajalein — Graph

°F

Kwajalein temperature yesterday

Maximum temperature yesterday: 84 °F (at 10:00 AM)
Minimum temperature yesterday: 77 °F (at 6:20 PM)
Average temperature yesterday: 80 °F

Past Weeks' High & Low Weather Summary

 TemperatureHumidityPressure
High88 °F (Apr 26, 2:20 PM)95% (Apr 19, 10:20 AM)29.96 "Hg (Apr 19, 10:20 AM)
Low76 °F (Apr 19, 11:20 AM)63% (Apr 13, 3:00 PM)29.72 "Hg (Apr 18, 4:20 PM)
Average82 °F79%29.83 "Hg
* Reported Apr 13 2:00 AM — Apr 28 2:20 AM, Kwajalein, Weather by CustomWeather, © 2015

Note: Actual official high and low records may vary slightly from our data, if they occured in-between our weather recording intervals... More about our weather records

Advertising

Kwajalein weather history for previous 24 hours

 ConditionsComfort  
Time TempWeatherWind HumidityBarometerVisibility
2:20 AM
Tue, Apr 28
78 °FClear.7 mph91%29.80 "Hg10 mi
2:00 AM78 °FClear.7 mph91%29.81 "Hg10 mi
1:40 AM78 °FClear.7 mph92%29.82 "Hg10 mi
1:20 AM77 °FClear.8 mph92%29.83 "Hg10 mi
1:00 AM77 °FClear.7 mph92%29.83 "Hg10 mi
12:40 AM77 °FClear.9 mph94%29.85 "Hg10 mi
12:20 AM77 °FClear.7 mph94%29.86 "Hg10 mi
12:00 AM77 °FRain. Clear.7 mph94%29.87 "Hg10 mi
11:40 PM
Mon, Apr 27
77 °FRain. Clear.5 mph93%29.88 "Hg10 mi
11:20 PM77 °FRain. Clear.3 mph92%29.88 "Hg10 mi
11:00 PM78 °FLight rain. Passing clouds.No wind92%29.89 "Hg10 mi
10:40 PM78 °FRain. Passing clouds.No wind92%29.91 "Hg10 mi
10:20 PM78 °FLight rain. Partly cloudy.3 mph92%29.91 "Hg7 mi
10:00 PM78 °FLight rain. Partly cloudy.5 mph92%29.91 "Hg10 mi
9:40 PM78 °FRain. Mostly cloudy.9 mph93%29.91 "Hg10 mi
9:20 PM78 °FRain. Mostly cloudy.14 mph93%29.90 "Hg7 mi
9:00 PM78 °FRain. Overcast.10 mph92%29.91 "Hg7 mi
8:40 PM78 °FRain. Overcast.14 mph93%29.91 "Hg7 mi
8:20 PM78 °FRain. Mostly cloudy.13 mph93%29.90 "Hg5 mi
8:00 PM77 °FRain. Partly cloudy.20 mph92%29.88 "Hg5 mi
7:20 PM77 °FHeavy rain. Passing clouds.14 mph91%29.87 "Hg2 mi
7:00 PM77 °FLight rain. Passing clouds.5 mph92%29.85 "Hg7 mi
6:20 PM77 °FLight rain. Sunny.12 mph93%29.84 "Hg10 mi
6:00 PM77 °FLight rain. Sunny.12 mph93%29.83 "Hg7 mi
5:40 PM77 °FRain. Sunny.16 mph94%29.82 "Hg7 mi
5:20 PM78 °FRain. Scattered clouds.20 mph94%29.81 "Hg2 mi
5:00 PM78 °FHeavy rain. Partly sunny.17 mph93%29.81 "Hg1 mi
4:40 PM79 °FLight rain. Sunny.15 mph93%29.80 "Hg5 mi
4:20 PM79 °FRain. Scattered clouds.16 mph93%29.78 "Hg5 mi
4:00 PM79 °FStrong thunderstorms. Broken clouds.16 mph91%29.79 "Hg2 mi
3:40 PM80 °FHeavy rain. Mostly cloudy.17 mph91%29.80 "Hg1 mi
3:20 PM80 °FLight rain. Cloudy.17 mph90%29.79 "Hg7 mi
3:00 PM80 °FMore clouds than sun.12 mph90%29.78 "Hg10 mi
2:20 PM80 °FBroken clouds.10 mph92%29.79 "Hg7 mi
2:00 PM80 °FCloudy.14 mph92%29.80 "Hg10 mi
1:40 PM80 °FRain. Cloudy.12 mph91%29.80 "Hg10 mi
1:20 PM80 °FLight rain. Cloudy.8 mph90%29.82 "Hg4 mi
1:00 PM80 °FLight rain. Cloudy.12 mph87%29.82 "Hg10 mi
12:20 PM80 °FCloudy.17 mph84%29.83 "Hg10 mi
12:00 PM80 °FBroken clouds.10 mph84%29.84 "Hg7 mi
11:20 AM81 °FPartly sunny.14 mph81%29.86 "Hg10 mi
11:00 AM82 °FDrizzle. Broken clouds.14 mph79%29.87 "Hg10 mi
10:40 AM83 °FCloudy.18 mph77%29.87 "Hg10 mi
10:00 AM84 °FCloudy.14 mph73%29.86 "Hg10 mi
9:40 AM84 °FBroken clouds.21 mph74%29.86 "Hg10 mi
9:20 AM84 °FBroken clouds.16 mph75%29.85 "Hg10 mi
9:00 AM84 °FBroken clouds.16 mph75%29.85 "Hg10 mi
8:40 AM83 °FScattered clouds.15 mph77%29.85 "Hg10 mi
8:20 AM82 °FScattered clouds.16 mph78%29.84 "Hg10 mi
8:00 AM82 °FPartly sunny.17 mph80%29.84 "Hg10 mi
7:40 AM81 °FScattered clouds.17 mph81%29.83 "Hg10 mi
7:20 AM81 °FScattered clouds.17 mph81%29.83 "Hg10 mi
7:00 AM81 °FSunny.15 mph81%29.82 "Hg10 mi
6:40 AM81 °FScattered clouds.15 mph81%29.81 "Hg10 mi
6:00 AM81 °FClear.16 mph80%29.80 "Hg10 mi
5:40 AM81 °FPassing clouds.17 mph80%29.80 "Hg10 mi
5:20 AM81 °FPassing clouds.17 mph80%29.79 "Hg10 mi
5:00 AM81 °FPassing clouds.18 mph80%29.80 "Hg10 mi
4:20 AM81 °FPassing clouds.20 mph81%29.79 "Hg10 mi
4:00 AM82 °FPassing clouds.17 mph81%29.79 "Hg10 mi
3:40 AM82 °FPassing clouds.16 mph80%29.80 "Hg10 mi
3:20 AM82 °FPassing clouds.17 mph80%29.80 "Hg10 mi
3:00 AM82 °FPassing clouds.14 mph80%29.80 "Hg10 mi
Weather by CustomWeather, © 2015

See weather overviewHow to use our weather pages